• Join FlightAware (Why Join?)
  • Login
  • US Flag 
05:16PM EDT


 

Airport Tracker/Info


-or-


 

Live Flight TrackerFlight Track Log ✈ JBU1329 ✈ 24-May-2013 ✈ KBOS - KBWI

Flight Track Log - Related Links

Times and Time Zones

All times are in EDT time to prevent confusion due to time zone crossing. See the JBU1329 flight status page for this flight to view local times or setup timezone preferences in your user account.

Time Position Orientation Groundspeed Altitude Reporting Facility
EDT Latitude Longitude Course Direction KTS MPH feet Rate Location/Type
09:33AM 42.3500 -71.0167 259° West 147 169 800  Level KA90
09:35AM 42.3092 -70.9269 122° Southeast 230 265 3,900 2,340 Climbing Boston Center
09:36AM 42.0369 -71.9837 258° West  Level FlightAware Approximate
09:36AM 42.3306 -70.8281 74° East 235 270 6,900  Level Boston Center
09:37AM 42.0233 -72.0697 258° West  Level FlightAware Approximate
09:37AM 42.3019 -70.7306 112° Southeast 251 289 10,200  Level Boston Center
09:38AM 42.0097 -72.1557 258° West  Level FlightAware Approximate
09:38AM 42.2294 -70.7578 196° South 199 229 12,100  Level Boston Center
09:39AM 41.9964 -72.2417 259° West  Level FlightAware Approximate
09:39AM 42.2125 -70.8786 259° West 226 260 15,200  Level Boston Center
09:40AM 42.1914 -71.0139 258° West 317 365 17,800 2,400 Climbing Boston Center
09:41AM 42.1803 -71.1372 263° West 359 413 20,000 2,160 Climbing Boston Center
09:42AM 42.1608 -71.2722 259° West 371 427 22,200 2,040 Climbing Boston Center
09:43AM 42.1394 -71.4097 258° West 371 427 24,200 1,920 Climbing Boston Center
09:44AM 42.1217 -71.5472 260° West 371 427 26,100 1,500 Climbing Boston Center
09:45AM 42.0853 -71.6989 252° West 376 433 27,600 1,260 Climbing Boston Center
09:46AM 42.0236 -71.8475 241° Southwest 376 433 29,000 1,500 Climbing Boston Center
09:47AM 41.9700 -71.9739 240° Southwest 382 440 30,700 1,500 Climbing Boston Center
09:48AM 41.9183 -72.0969 241° Southwest 393 452 32,000 600 Climbing Boston Center
09:49AM 41.8647 -72.2256 241° Southwest 393 452 32,000  Level Boston Center
09:50AM 41.8106 -72.3508 240° Southwest 400 460 32,000  Level Boston Center
09:51AM 41.7544 -72.4819 240° Southwest 400 460 32,000  Level Boston Center
09:52AM 41.7000 -72.6097 240° Southwest 400 460 32,000  Level Boston Center
09:53AM 41.6456 -72.7400 241° Southwest 400 460 32,000  Level Boston Center
09:54AM 41.5931 -72.8647 241° Southwest 395 455 32,000  Level Boston Center
09:55AM 41.5383 -72.9919 240° Southwest 400 460 32,000  Level Boston Center
09:56AM 41.4897 -73.1053 240° Southwest 400 460 32,000  Level Boston Center
09:57AM 41.4369 -73.2347 241° Southwest 400 460 32,000  Level Boston Center
09:58AM 41.3775 -73.3669 239° Southwest 405 466 32,000  Level Boston Center
10:00AM 41.2889 -73.5683 240° Southwest 395 455 32,000  Level New York Center
10:01AM 41.2236 -73.6842 233° Southwest 400 460 32,000  Level New York Center
10:02AM 41.1475 -73.8131 232° Southwest 410 472 32,000  Level New York Center
10:03AM 41.0819 -73.9231 232° Southwest 402 463 32,000 -360 Level New York Center
10:04AM 41.0189 -74.0272 231° Southwest 388 447 31,300 -1,200 Descending New York Center
10:05AM 40.9533 -74.1339 231° Southwest 378 435 29,700 -1,620 Descending New York Center
10:06AM 40.8856 -74.2431 231° Southwest 383 441 28,100 -1,680 Descending New York Center
10:07AM 40.8156 -74.3575 231° Southwest 395 455 26,400 -1,080 Descending New York Center
10:08AM 40.7475 -74.4661 230° Southwest 400 460 26,000 -300 Descending New York Center
10:09AM 40.6814 -74.5775 232° Southwest 394 453 25,900 -600 Descending New York Center
10:10AM 40.6294 -74.7031 241° Southwest 394 453 24,900 -1,080 Descending New York Center
10:11AM 40.5853 -74.8372 247° West 394 453 23,800 -1,140 Descending New York Center
10:12AM 40.5453 -74.9714 249° West 401 461 22,700 -1,140 Descending New York Center
10:13AM 40.4989 -75.0997 245° Southwest 391 450 21,600 -1,140 Descending New York Center
10:14AM 40.4347 -75.2019 231° Southwest 378 435 20,500 -1,140 Descending New York Center
10:15AM 40.3725 -75.3014 231° Southwest 373 429 19,400 -780 Descending New York Center
10:16AM 40.2942 -75.3861 220° Southwest 368 423 19,000 -240 Descending New York Center
10:17AM 40.2169 -75.4436 210° Southwest 362 417 19,000  Level New York Center
10:18AM 40.1181 -75.5183 210° Southwest 370 426 19,000  Level New York Center
10:19AM 40.0447 -75.5783 212° Southwest 370 426 19,000 -540 Level New York Center
10:20AM 39.9503 -75.6478 209° Southwest 364 419 18,000 -960 Descending New York Center
10:21AM 39.8906 -75.7275 226° Southwest 351 404 17,100 -960 Descending New York Center
10:22AM 39.8317 -75.8342 234° Southwest 346 398 16,100 -1,020 Descending New York Center
10:23AM 39.7667 -75.9667 237° Southwest 275 316 14,500 -1,200 Descending Potomac TRACON
10:24AM 39.7167 -76.0500 232° Southwest 273 314 13,000 -1,440 Descending Potomac TRACON
10:25AM 39.6667 -76.1333 232° Southwest 272 313 11,700 -1,620 Descending Potomac TRACON
10:26AM 39.6167 -76.1833 218° Southwest 268 308 9,900 -1,740 Descending Potomac TRACON
10:28AM 39.5610 -76.3112 201° Southwest  Level FlightAware Approximate
10:28AM 39.5000 -76.3167 201° Southwest 262 302 6,600  Level Potomac TRACON
10:29AM 39.4500 -76.3667 218° Southwest 261 300 5,000 -960 Descending Potomac TRACON
10:30AM 39.3833 -76.4000 201° Southwest 268 308 4,700 -540 Descending Potomac TRACON
10:31AM 39.3000 -76.4333 197° South 278 320 4,000 -540 Descending Potomac TRACON
10:32AM 39.2333 -76.4667 201° Southwest 281 323 3,700 -540 Descending Potomac TRACON
10:33AM 39.1500 -76.4667 180° South 288 331 3,000 -300 Descending Potomac TRACON
10:34AM 39.0833 -76.4667 180° South 235 270 3,100  Climbing Potomac TRACON
10:35AM 39.0333 -76.4833 195° South 198 228 3,000 -120 Descending Potomac TRACON
10:36AM 39.0333 -76.5500 270° West 156 180 2,900 -300 Descending Potomac TRACON
10:37AM 39.0667 -76.5667 339° North 145 167 2,500 -600 Descending Potomac TRACON
10:38AM 39.1000 -76.6000 322° Northwest 144 166 1,700 -840 Descending Potomac TRACON
10:39AM 39.1333 -76.6333 322° Northwest 124 143 900 -840 Descending Potomac TRACON
10:41AM 39.1667 -76.6667 270° West  Level FlightAware Approximate
10:48AM 39.1754 -76.6683 270° West  Level Estimated